Arcata, CA (95518)

4:49 AM PDT on July 26, 2016 (GMT -0700)
APRSWXNET | | Change Station

Elev 5 ft 40.86 °N, 124.09 °W | Updated 51 minutes ago

Overcast
Overcast
56 °F
Feels Like 56 °F
N
2
Wind Variable Wind from West
Gusts 0.0 mph

Today
High -- | Low -- °F
--% Chance of Precip.
Yesterday
High -- | Low -- °F
Precip. -- in
Pressure 30.02 in
Visibility 9.0 miles
Clouds Overcast 300 ft
Dew Point 54 °F
Humidity 94%
Rainfall in
Snow Depth Not available.
6:07 AM 8:37 PM
Waning Gibbous, 55% visible
METAR KACV 261053Z AUTO 00000KT 9SM OVC003 13/12 A3000 RMK AO2 SLP164 T01330122
Pressure 30.02 in
Visibility 9.0 miles
Clouds Overcast 300 ft
Dew Point 54 °F
Humidity 94%
Rainfall in
Snow Depth Not available.
6:07 AM 8:37 PM
Waning Gibbous, 55% visible
METAR KACV 261053Z AUTO 00000KT 9SM OVC003 13/12 A3000 RMK AO2 SLP164 T01330122

10-Day Weather Forecast

Almanac

Astronomy

Jul. 26, 2016 Rise Set
Actual Time
Civil Twilight
Nautical Twilight
Astronomical Twilight
Moon
Length of Visible Light
Length of Day
Tomorrow will be .
, % of the Moon is Illuminated

Today's Extremes

State Highs State Lows

Community

WunderPhotos

Upload Photos

1,927,577 photos uploaded!

WunderBlog® & News

Nearby

Air Quality

  Air Quality AQ Index Pollutant
Not available.

Snow Depth

Station Depth Elevation

Earthquake Activity

City Distance Mag. Time & Date
Minimum magnitude displayed is 2.5.

Coastal Water Temperatures

Place Temperature

Stations

Nearby Weather Stations

Station Location Temp. Windchill Dew Point Humidity Wind Precip. Elev Updated Type
                   

Watches & Warnings

There are currently no watches in effect.